Starlink 4749

decayed
NORAD ID: 53818 Int'l Des: 2022-114 Owner: SPXS Country: US Constellation: starlink
LEOCIRCULAR
グループ

Starlink 4749について

説明を読み込み中...

高度履歴

Altitude vs Time

uPlot chart will show altitude changes over time

軌道要素

1 53818U 22114A 25067.12065444 .24259016 12321-4 22326-2 0 9990
2 53818 53.1738 60.0651 0002075 44.8621 2.1344 16.38065316138220
Epoch: Mar 8, 2025 • Age: 6816 hours

現在のステータス

Position data unavailable
打ち上げ日 Sep 19, 2022
運用期間 3.2 years
落下予定日 Mar 8, 2025
タイプ internet

技術仕様

分類 Payload
質量 305.00 kg
乾燥質量 290.00 kg
総質量 305.00 kg
長さ 0.20 m
直径 2.80 m
スパン 9.00 m
形状 Box + pan
製造者 SPXS
バスタイプ Starlink
フェーズステータス Reentered
所有者/国 SPXS/US

大規模コンステレーション

Loading constellations...